Weather History for West Palm Beach, FL

Change the Weather History Date:

Friday, October 25, 2013

  Actual Average Record
Temperature  
Mean Temperature 76 °F 77 °F  
Max Temperature 85 °F 84 °F 90 °F (1925)
Min Temperature 67 °F 70 °F 52 °F (2005)
Degree Days  
Heating Degree Days 0 0  
Month to date heating degree days 0 0  
Since 1 July heating degree days 0 0  
Cooling Degree Days 11 12  
Month to date cooling degree days 401 347  
Year to date cooling degree days 3774 3555  
Growing Degree Days 25 (Base 50)    
Moisture  
Dew Point 61 °F    
Average Humidity 62    
Maximum Humidity 81    
Minimum Humidity 43    
Precipitation  
Precipitation 0.00 in 0.15 in 1.94 in (1921)
Month to date precipitation 1.13 4.25  
Year to date precipitation 57.85 53.32  
Snow  
Snow 0.00 in - - ()
Month to date snowfall 0.0  
Since 1 July snowfall 0.0  
Since 1 September snowfall 0.0  
Snow Depth 0.00 in    
Sea Level Pressure  
Sea Level Pressure 30.12 in    
Wind  
Wind Speed 10 mph (NNE)    
Max Wind Speed 21 mph    
Max Gust Speed 25 mph    
Visibility 10 miles    
Events      
T = Trace of Precipitation, MM = Missing Value Source: NWS Daily Summary

Daily Weather History Graph

Daily Weather History Graph

Search for Another Location

Airport:

Trip Planner

Search our weather history database for the weather conditions in past years. The results will help you decide how hot, cold, wet, or windy it might be!

Date:

Astronomy

Oct. 25, 2013 Rise Set
Actual Time 7:25 AM EDT 6:42 PM EDT
Civil Twilight 7:01 AM EDT 7:06 PM EDT
Nautical Twilight 6:34 AM EDT 7:33 PM EDT
Astronomical Twilight 6:07 AM EDT 8:00 PM EDT
Moon No Moon Rise 12:56 PM EDT (10/25)
Length of Visible Light 12h 04m
Length of Day
11h 17m
Waning Gibbous, 62% of the Moon is Illuminated
Oct 25
Waning Gibbous
Oct 26
Last Quarter
Nov 3
New
Nov 10
First Quarter
Nov 17
Full

Hourly Weather History & Observations

Time (EDT) Temp. Heat Index Dew Point Humidity Pressure Visibility Wind Dir Wind Speed Gust Speed Precip Events Conditions
12:53 AM 78.1 °F - 59.0 °F 52% 30.08 in 10.0 mi NNE 9.2 mph - N/A   Scattered Clouds
1:53 AM 77.0 °F - 60.1 °F 56% 30.08 in 10.0 mi NNE 8.1 mph - N/A   Mostly Cloudy
2:53 AM 71.1 °F - 62.1 °F 73% 30.08 in 10.0 mi NW 8.1 mph - N/A   Mostly Cloudy
3:53 AM 69.1 °F - 62.1 °F 78% 30.08 in 10.0 mi NW 6.9 mph - N/A   Scattered Clouds
4:53 AM 68.0 °F - 62.1 °F 81% 30.09 in 10.0 mi NW 5.8 mph - N/A   Partly Cloudy
5:53 AM 68.0 °F - 62.1 °F 81% 30.09 in 10.0 mi NW 6.9 mph - N/A   Scattered Clouds
6:53 AM 69.1 °F - 62.1 °F 78% 30.11 in 10.0 mi NNW 5.8 mph - N/A   Mostly Cloudy
7:53 AM 68.0 °F - 62.1 °F 81% 30.13 in 10.0 mi NW 3.5 mph - N/A   Mostly Cloudy
8:53 AM 71.1 °F - 63.0 °F 75% 30.15 in 10.0 mi NW 4.6 mph - N/A   Mostly Cloudy
9:53 AM 75.9 °F - 63.0 °F 64% 30.16 in 10.0 mi NNW 8.1 mph - N/A   Mostly Cloudy
10:53 AM 82.9 °F 82.8 °F 59.0 °F 44% 30.16 in 10.0 mi NE 15.0 mph 21.9 mph N/A   Mostly Cloudy
11:53 AM 82.9 °F 82.6 °F 57.9 °F 42% 30.15 in 10.0 mi NNE 13.8 mph - N/A   Mostly Cloudy
12:53 PM 82.0 °F 82.4 °F 60.1 °F 47% 30.14 in 10.0 mi NE 15.0 mph - N/A   Mostly Cloudy
1:53 PM 81.0 °F 81.6 °F 60.1 °F 49% 30.14 in 10.0 mi North 12.7 mph - N/A   Mostly Cloudy
2:53 PM 82.0 °F 82.4 °F 60.1 °F 47% 30.12 in 10.0 mi NE 12.7 mph 21.9 mph N/A   Mostly Cloudy
3:53 PM 82.0 °F 82.4 °F 60.1 °F 47% 30.12 in 10.0 mi NNE 15.0 mph 19.6 mph N/A   Mostly Cloudy
4:53 PM 81.0 °F 81.6 °F 60.1 °F 49% 30.11 in 10.0 mi NNE 15.0 mph - N/A   Mostly Cloudy
5:53 PM 80.1 °F 81.1 °F 61.0 °F 52% 30.12 in 10.0 mi NNE 12.7 mph - N/A   Mostly Cloudy
6:53 PM 79.0 °F - 61.0 °F 54% 30.12 in 10.0 mi NE 11.5 mph 20.7 mph N/A   Mostly Cloudy
7:53 PM 79.0 °F - 62.1 °F 56% 30.13 in 10.0 mi NE 10.4 mph - N/A   Mostly Cloudy
8:53 PM 79.0 °F - 62.1 °F 56% 30.13 in 10.0 mi NE 13.8 mph - N/A   Mostly Cloudy
9:53 PM 79.0 °F - 60.1 °F 52% 30.14 in 10.0 mi NE 12.7 mph - N/A   Mostly Cloudy
10:53 PM 78.1 °F - 60.1 °F 54% 30.15 in 10.0 mi NE 11.5 mph - N/A   Scattered Clouds
11:53 PM 78.1 °F - 60.1 °F 54% 30.15 in 10.0 mi NE 9.2 mph - N/A   Scattered Clouds